| time (UTC) | temp F | wind direction | speed MPH | gust MPH | rain 1hr in | rain 24hr in | rain mn in | humidity % | barometer mb |
| 20260903105006 | 70 | 269 | 4.0 | 9.0 | 0.00 | 0.00 | 0.00 | 46 | 1015.9 |
| 20260903104509 | 70 | 246 | 4.0 | 11.0 | 0.00 | 0.00 | 0.00 | 47 | 1015.7 |
| 20260903104005 | 70 | 232 | 5.0 | 10.0 | 0.00 | 0.00 | 0.00 | 46 | 1015.7 |
| 20260903103507 | 70 | 282 | 4.0 | 8.0 | 0.00 | 0.00 | 0.00 | 46 | 1015.7 |
| 20260903103004 | 71 | 266 | 4.0 | 9.0 | 0.00 | 0.00 | 0.00 | 46 | 1015.6 |
| 20260903102504 | 71 | 288 | 5.0 | 10.0 | 0.00 | 0.00 | 0.00 | 45 | 1015.5 |
| 20260903102003 | 71 | 274 | 5.0 | 12.0 | 0.00 | 0.00 | 0.00 | 45 | 1015.4 |
| 20260903101502 | 71 | 231 | 5.0 | 12.0 | 0.00 | 0.00 | 0.00 | 46 | 1015.2 |
| 20260903101101 | 71 | 280 | 6.0 | 10.0 | 0.00 | 0.00 | 0.00 | 46 | 1015.1 |
| 20260903100600 | 71 | 232 | 5.0 | 10.0 | 0.00 | 0.00 | 0.00 | 46 | 1015.1 |
| 20260903100100 | 71 | 281 | 4.0 | 12.0 | 0.00 | 0.00 | 0.00 | 46 | 1015.1 |
| 20260903095559 | 71 | 269 | 6.0 | 12.0 | 0.00 | 0.00 | 0.00 | 47 | 1015.0 |
| 20260903095105 | 71 | 229 | 5.0 | 11.0 | 0.00 | 0.00 | 0.00 | 47 | 1014.9 |
| 20260903094600 | 71 | 293 | 5.0 | 15.0 | 0.00 | 0.00 | 0.00 | 47 | 1014.9 |
| 20260903094057 | 71 | 259 | 6.0 | 15.0 | 0.00 | 0.00 | 0.00 | 47 | 1014.8 |
| 20260903093557 | 71 | 277 | 7.0 | 15.0 | 0.00 | 0.00 | 0.00 | 47 | 1014.7 |
| 20260903093103 | 71 | 292 | 7.0 | 11.0 | 0.00 | 0.00 | 0.00 | 48 | 1014.7 |
| 20260903092555 | 72 | 263 | 5.0 | 11.0 | 0.00 | 0.00 | 0.00 | 48 | 1014.6 |
| 20260903092054 | 72 | 287 | 6.0 | 11.0 | 0.00 | 0.00 | 0.00 | 48 | 1014.5 |
| 20260903091554 | 72 | 256 | 5.0 | 10.0 | 0.00 | 0.00 | 0.00 | 47 | 1014.5 |
| 20260903091053 | 72 | 266 | 4.0 | 13.0 | 0.00 | 0.00 | 0.00 | 47 | 1014.4 |
| 20260903090555 | 72 | 284 | 5.0 | 12.0 | 0.00 | 0.00 | 0.00 | 47 | 1014.2 |
| 20260903090051 | 72 | 238 | 6.0 | 12.0 | 0.00 | 0.00 | 0.00 | 46 | 1014.1 |
| 20260903085551 | 73 | 238 | 6.0 | 12.0 | 0.00 | 0.00 | 0.00 | 46 | 1014.1 |
| 20260903085050 | 73 | 263 | 4.0 | 13.0 | 0.00 | 0.00 | 0.00 | 45 | 1013.9 |
| 20260903084555 | 73 | 273 | 5.0 | 16.0 | 0.00 | 0.00 | 0.00 | 45 | 1013.8 |
| 20260903084049 | 73 | 227 | 8.0 | 16.0 | 0.00 | 0.00 | 0.00 | 45 | 1013.7 |
| 20260903083547 | 73 | 271 | 7.0 | 14.0 | 0.00 | 0.00 | 0.00 | 45 | 1013.5 |
| 20260903083055 | 73 | 285 | 8.0 | 14.0 | 0.00 | 0.00 | 0.00 | 45 | 1013.3 |
| 20260903082547 | 74 | 273 | 7.0 | 13.0 | 0.00 | 0.00 | 0.00 | 44 | 1013.2 |
| 20260903082047 | 74 | 261 | 7.0 | 12.0 | 0.00 | 0.00 | 0.00 | 44 | 1013.1 |
| 20260903081603 | 74 | 281 | 7.0 | 15.0 | 0.00 | 0.00 | 0.00 | 43 | 1012.9 |
| 20260903081046 | 75 | 260 | 7.0 | 15.0 | 0.00 | 0.00 | 0.00 | 42 | 1012.8 |
| 20260903080544 | 75 | 239 | 6.0 | 14.0 | 0.00 | 0.00 | 0.00 | 42 | 1012.8 |
| 20260903080045 | 75 | 240 | 5.0 | 14.0 | 0.00 | 0.00 | 0.00 | 42 | 1012.7 |
| 20260903075544 | 75 | 282 | 8.0 | 14.0 | 0.00 | 0.00 | 0.00 | 41 | 1012.7 |
| 20260903075044 | 75 | 290 | 4.0 | 10.0 | 0.00 | 0.00 | 0.00 | 40 | 1012.5 |
| 20260903074548 | 75 | 236 | 4.0 | 10.0 | 0.00 | 0.00 | 0.00 | 40 | 1012.4 |
| 20260903074044 | 76 | 274 | 3.0 | 10.0 | 0.00 | 0.00 | 0.00 | 38 | 1012.2 |
| 20260903073544 | 76 | 241 | 3.0 | 10.0 | 0.00 | 0.00 | 0.00 | 38 | 1012.1 |
| 20260903073044 | 76 | 242 | 4.0 | 10.0 | 0.00 | 0.00 | 0.00 | 37 | 1012.0 |
| 20260903072546 | 77 | 211 | 2.0 | 10.0 | 0.00 | 0.00 | 0.00 | 38 | 1012.0 |
| 20260903072044 | 78 | 239 | 2.0 | 6.0 | 0.00 | 0.00 | 0.00 | 38 | 1012.0 |
| 20260903071551 | 78 | 266 | 2.0 | 7.0 | 0.00 | 0.00 | 0.00 | 37 | 1012.0 |
| 20260903071043 | 78 | 250 | 3.0 | 7.0 | 0.00 | 0.00 | 0.00 | 36 | 1011.9 |
| 20260903070545 | 79 | 226 | 2.0 | 11.0 | 0.00 | 0.00 | 0.00 | 35 | 1011.7 |
| 20260903070042 | 79 | 254 | 4.0 | 11.0 | 0.00 | 0.00 | 0.00 | 35 | 1011.7 |
| 20260903065543 | 79 | 246 | 4.0 | 11.0 | 0.00 | 0.00 | 0.00 | 34 | 1011.5 |
| 20260903065042 | 80 | 275 | 6.0 | 11.0 | 0.00 | 0.00 | 0.00 | 34 | 1011.5 |
| 20260903064548 | 80 | 280 | 4.0 | 11.0 | 0.00 | 0.00 | 0.00 | 34 | 1011.4 |
| 20260903064042 | 80 | 302 | 4.0 | 11.0 | 0.00 | 0.00 | 0.00 | 34 | 1011.3 |
| 20260903063541 | 80 | 242 | 4.0 | 11.0 | 0.00 | 0.00 | 0.00 | 34 | 1011.3 |
| 20260903063048 | 81 | 241 | 2.0 | 11.0 | 0.00 | 0.00 | 0.00 | 34 | 1011.1 |
| 20260903062542 | 81 | 268 | 6.0 | 11.0 | 0.00 | 0.00 | 0.00 | 33 | 1011.1 |
| 20260903062042 | 81 | 237 | 4.0 | 12.0 | 0.00 | 0.00 | 0.00 | 34 | 1011.0 |
| 20260903061542 | 82 | 258 | 5.0 | 12.0 | 0.00 | 0.00 | 0.00 | 33 | 1011.1 |
| 20260903061041 | 82 | 231 | 3.0 | 10.0 | 0.00 | 0.00 | 0.00 | 32 | 1011.1 |
| 20260903060541 | 82 | 240 | 3.0 | 10.0 | 0.00 | 0.00 | 0.00 | 32 | 1011.0 |
| 20260903060043 | 82 | 244 | 4.0 | 11.0 | 0.00 | 0.00 | 0.00 | 33 | 1011.0 |
| 20260903055544 | 82 | 229 | 3.0 | 11.0 | 0.00 | 0.00 | 0.00 | 32 | 1010.9 |
| 20260903055040 | 82 | 244 | 2.0 | 9.0 | 0.00 | 0.00 | 0.00 | 31 | 1010.9 |
| 20260903054540 | 82 | 251 | 1.0 | 9.0 | 0.00 | 0.00 | 0.00 | 31 | 1010.8 |
| 20260903054040 | 82 | 231 | 3.0 | 9.0 | 0.00 | 0.00 | 0.00 | 31 | 1010.7 |
| 20260903053539 | 82 | 215 | 4.0 | 10.0 | 0.00 | 0.00 | 0.00 | 30 | 1010.8 |
| 20260903053040 | 82 | 255 | 4.0 | 10.0 | 0.00 | 0.00 | 0.00 | 30 | 1010.7 |
| 20260903052540 | 82 | 200 | 4.0 | 9.0 | 0.00 | 0.00 | 0.00 | 29 | 1010.6 |
| 20260903052040 | 82 | 229 | 4.0 | 11.0 | 0.00 | 0.00 | 0.00 | 30 | 1010.6 |
| 20260903051540 | 82 | 220 | 4.0 | 15.0 | 0.00 | 0.00 | 0.00 | 30 | 1010.5 |
| 20260903051043 | 82 | 277 | 6.0 | 15.0 | 0.00 | 0.00 | 0.00 | 31 | 1010.5 |
| 20260903050539 | 82 | 246 | 7.0 | 12.0 | 0.00 | 0.00 | 0.00 | 30 | 1010.4 |
| 20260903050045 | 82 | 238 | 7.0 | 16.0 | 0.00 | 0.00 | 0.00 | 30 | 1010.3 |
| 20260903045539 | 82 | 217 | 5.0 | 16.0 | 0.00 | 0.00 | 0.00 | 29 | 1010.3 |
| 20260903045041 | 83 | 200 | 4.0 | 10.0 | 0.00 | 0.00 | 0.00 | 28 | 1010.2 |
| 20260903044545 | 83 | 227 | 3.0 | 10.0 | 0.00 | 0.00 | 0.00 | 29 | 1010.1 |
| 20260903044038 | 83 | 168 | 5.0 | 14.0 | 0.00 | 0.00 | 0.00 | 28 | 1010.1 |
| 20260903043539 | 83 | 226 | 4.0 | 14.0 | 0.00 | 0.00 | 0.00 | 28 | 1010.1 |
| 20260903043037 | 83 | 208 | 5.0 | 12.0 | 0.00 | 0.00 | 0.00 | 28 | 1010.1 |
| 20260903042537 | 83 | 234 | 4.0 | 11.0 | 0.00 | 0.00 | 0.00 | 28 | 1010.1 |
| 20260903042037 | 83 | 206 | 4.0 | 14.0 | 0.00 | 0.00 | 0.00 | 28 | 1010.0 |
| 20260903041544 | 83 | 223 | 6.0 | 16.0 | 0.00 | 0.00 | 0.00 | 28 | 1009.8 |
| 20260903041037 | 83 | 167 | 6.0 | 15.0 | 0.00 | 0.00 | 0.00 | 28 | 1009.7 |
| 20260903040535 | 83 | 236 | 4.0 | 9.0 | 0.00 | 0.00 | 0.00 | 30 | 1009.7 |
| 20260903040035 | 83 | 244 | 3.0 | 9.0 | 0.00 | 0.00 | 0.00 | 30 | 1009.6 |
| 20260903035534 | 83 | 191 | 4.0 | 10.0 | 0.00 | 0.00 | 0.00 | 29 | 1009.6 |
| 20260903035034 | 83 | 205 | 4.0 | 11.0 | 0.00 | 0.00 | 0.00 | 31 | 1009.5 |
| 20260903034537 | 83 | 196 | 5.0 | 13.0 | 0.00 | 0.00 | 0.00 | 31 | 1009.4 |
| 20260903034035 | 82 | 244 | 6.0 | 22.0 | 0.00 | 0.00 | 0.00 | 32 | 1009.4 |
| 20260903033533 | 82 | 240 | 9.0 | 22.0 | 0.00 | 0.00 | 0.00 | 31 | 1009.4 |
| 20260903033033 | 82 | 252 | 6.0 | 16.0 | 0.00 | 0.00 | 0.00 | 32 | 1009.4 |
| 20260903032535 | 82 | 256 | 8.0 | 15.0 | 0.00 | 0.00 | 0.00 | 31 | 1009.5 |
| 20260903032032 | 83 | 237 | 9.0 | 16.0 | 0.00 | 0.00 | 0.00 | 32 | 1009.6 |
| 20260903031536 | 83 | 220 | 7.0 | 15.0 | 0.00 | 0.00 | 0.00 | 31 | 1009.6 |
| 20260903031031 | 83 | 238 | 6.0 | 12.0 | 0.00 | 0.00 | 0.00 | 31 | 1009.6 |
| 20260903030530 | 83 | 169 | 5.0 | 11.0 | 0.00 | 0.00 | 0.00 | 32 | 1009.4 |
| 20260903030030 | 83 | 265 | 4.0 | 17.0 | 0.00 | 0.00 | 0.00 | 33 | 1009.3 |
| 20260903025532 | 83 | 235 | 8.0 | 17.0 | 0.00 | 0.00 | 0.00 | 31 | 1009.2 |
| 20260903025028 | 83 | 236 | 6.0 | 16.0 | 0.00 | 0.00 | 0.00 | 35 | 1009.2 |
| 20260903024527 | 83 | 244 | 6.0 | 15.0 | 0.00 | 0.00 | 0.00 | 35 | 1009.2 |
| 20260903024028 | 82 | 154 | 5.0 | 16.0 | 0.00 | 0.00 | 0.00 | 34 | 1009.2 |
| 20260903023530 | 82 | 132 | 5.0 | 16.0 | 0.00 | 0.00 | 0.00 | 35 | 1009.3 |
| 20260903023031 | 83 | 232 | 6.0 | 16.0 | 0.00 | 0.00 | 0.00 | 35 | 1009.3 |
| 20260903022524 | 83 | 248 | 8.0 | 19.0 | 0.00 | 0.00 | 0.00 | 35 | 1009.4 |
| 20260903022023 | 83 | 229 | 8.0 | 19.0 | 0.00 | 0.00 | 0.00 | 35 | 1009.4 |
| 20260903021524 | 82 | 246 | 9.0 | 20.0 | 0.00 | 0.00 | 0.00 | 36 | 1009.3 |
| 20260903021022 | 82 | 247 | 9.0 | 20.0 | 0.00 | 0.00 | 0.00 | 36 | 1009.2 |
| 20260903020523 | 82 | 249 | 7.0 | 22.0 | 0.00 | 0.00 | 0.00 | 37 | 1009.2 |
| 20260903020051 | 82 | 265 | 12.0 | 22.0 | 0.00 | 0.00 | 0.00 | 37 | 1009.3 |
| 20260903015518 | 82 | 246 | 9.0 | 20.0 | 0.00 | 0.00 | 0.00 | 37 | 1009.3 |
| 20260903015017 | 82 | 217 | 8.0 | 20.0 | 0.00 | 0.00 | 0.00 | 37 | 1009.2 |
| 20260903014516 | 82 | 255 | 4.0 | 15.0 | 0.00 | 0.00 | 0.00 | 39 | 1009.2 |
| 20260903014016 | 82 | 209 | 6.0 | 15.0 | 0.00 | 0.00 | 0.00 | 39 | 1009.2 |
| 20260903013514 | 82 | 207 | 6.0 | 21.0 | 0.00 | 0.00 | 0.00 | 39 | 1009.2 |
| 20260903013014 | 81 | 219 | 10.0 | 21.0 | 0.00 | 0.00 | 0.00 | 39 | 1009.2 |
| 20260903012512 | 81 | 250 | 9.0 | 19.0 | 0.00 | 0.00 | 0.00 | 39 | 1009.2 |
| 20260903012012 | 81 | 255 | 5.0 | 18.0 | 0.00 | 0.00 | 0.00 | 39 | 1009.1 |
| 20260903011511 | 81 | 284 | 7.0 | 20.0 | 0.00 | 0.00 | 0.00 | 40 | 1009.1 |
| 20260903011010 | 81 | 234 | 9.0 | 20.0 | 0.00 | 0.00 | 0.00 | 39 | 1008.9 |
| 20260903010511 | 81 | 246 | 10.0 | 17.0 | 0.00 | 0.00 | 0.00 | 40 | 1009.1 |
| 20260903010009 | 80 | 240 | 8.0 | 23.0 | 0.00 | 0.00 | 0.00 | 40 | 1009.1 |
| 20260903005507 | 80 | 293 | 8.0 | 23.0 | 0.00 | 0.00 | 0.00 | 40 | 1009.1 |
| 20260903005011 | 80 | 244 | 10.0 | 21.0 | 0.00 | 0.00 | 0.00 | 40 | 1009.2 |
| 20260903004504 | 80 | 237 | 10.0 | 19.0 | 0.00 | 0.00 | 0.00 | 40 | 1009.2 |
| 20260903004003 | 80 | 224 | 7.0 | 26.0 | 0.00 | 0.00 | 0.00 | 41 | 1009.2 |
| 20260903003501 | 79 | 347 | 15.0 | 27.0 | 0.00 | 0.00 | 0.00 | 40 | 1009.2 |
| 20260903003101 | 79 | 256 | 5.0 | 25.0 | 0.00 | 0.00 | 0.00 | 42 | 1009.3 |
| 20260903002559 | 79 | 269 | 15.0 | 29.0 | 0.00 | 0.00 | 0.00 | 41 | 1009.3 |
| 20260903002058 | 79 | 266 | 15.0 | 29.0 | 0.00 | 0.00 | 0.00 | 41 | 1009.1 |
| 20260903001608 | 78 | 303 | 10.0 | 25.0 | 0.00 | 0.00 | 0.00 | 42 | 1009.3 |
| 20260903001055 | 78 | 275 | 13.0 | 30.0 | 0.00 | 0.00 | 0.00 | 42 | 1009.2 |
| 20260903000554 | 78 | 282 | 16.0 | 30.0 | 0.00 | 0.00 | 0.00 | 41 | 1009.2 |
| 20260903000058 | 78 | 213 | 17.0 | 26.0 | 0.00 | 0.00 | 0.00 | 42 | 1009.2 |
| 20260902235553 | 78 | 225 | 12.0 | 23.0 | 0.00 | 0.00 | 0.00 | 42 | 1009.3 |
| 20260902235051 | 78 | 242 | 12.0 | 23.0 | 0.00 | 0.00 | 0.00 | 43 | 1009.3 |
| 20260902234549 | 78 | 254 | 10.0 | 23.0 | 0.00 | 0.00 | 0.00 | 43 | 1009.3 |
| 20260902234048 | 77 | 245 | 10.0 | 25.0 | 0.00 | 0.00 | 0.00 | 43 | 1009.3 |
| 20260902233548 | 77 | 299 | 16.0 | 25.0 | 0.00 | 0.00 | 0.00 | 43 | 1009.4 |
| 20260902233053 | 77 | 257 | 11.0 | 25.0 | 0.00 | 0.00 | 0.00 | 44 | 1009.6 |
| 20260902232544 | 76 | 301 | 11.0 | 27.0 | 0.00 | 0.00 | 0.00 | 45 | 1009.7 |
| 20260902232043 | 76 | 263 | 14.0 | 27.0 | 0.00 | 0.00 | 0.00 | 45 | 1009.7 |
| 20260902231542 | 75 | 282 | 9.0 | 24.0 | 0.00 | 0.00 | 0.00 | 48 | 1009.7 |
| 20260902231040 | 75 | 255 | 12.0 | 24.0 | 0.00 | 0.00 | 0.00 | 49 | 1009.7 |
| 20260902230538 | 74 | 244 | 5.0 | 14.0 | 0.00 | 0.00 | 0.00 | 52 | 1009.8 |
| 20260902230037 | 73 | 281 | 8.0 | 16.0 | 0.00 | 0.00 | 0.00 | 51 | 1009.8 |
| 20260902225540 | 73 | 320 | 8.0 | 17.0 | 0.00 | 0.00 | 0.00 | 52 | 1009.7 |
| 20260902225037 | 73 | 303 | 8.0 | 18.0 | 0.00 | 0.00 | 0.00 | 52 | 1009.7 |
| 20260902224534 | 72 | 279 | 6.0 | 18.0 | 0.00 | 0.00 | 0.00 | 53 | 1009.7 |
| 20260902224034 | 72 | 248 | 8.0 | 14.0 | 0.00 | 0.00 | 0.00 | 53 | 1009.8 |
| 20260902223531 | 71 | 278 | 5.0 | 15.0 | 0.00 | 0.00 | 0.00 | 53 | 1009.9 |
| 20260902223030 | 71 | 293 | 6.0 | 15.0 | 0.00 | 0.00 | 0.00 | 54 | 1009.9 |
| 20260902222531 | 71 | 242 | 6.0 | 13.0 | 0.00 | 0.00 | 0.00 | 54 | 1010.0 |
| 20260902222031 | 71 | 260 | 7.0 | 15.0 | 0.00 | 0.00 | 0.00 | 54 | 1010.0 |
| 20260902221542 | 71 | 273 | 6.0 | 15.0 | 0.00 | 0.00 | 0.00 | 55 | 1010.1 |
| 20260902221030 | 70 | 286 | 8.0 | 18.0 | 0.00 | 0.00 | 0.00 | 55 | 1010.2 |
| 20260902220526 | 70 | 257 | 6.0 | 18.0 | 0.00 | 0.00 | 0.00 | 56 | 1010.2 |
| 20260902220026 | 69 | 281 | 6.0 | 12.0 | 0.00 | 0.00 | 0.00 | 58 | 1010.2 |
| 20260902215528 | 68 | 277 | 5.0 | 11.0 | 0.00 | 0.00 | 0.00 | 60 | 1010.4 |
| 20260902215026 | 68 | 248 | 5.0 | 12.0 | 0.00 | 0.00 | 0.00 | 61 | 1010.3 |
| 20260902214526 | 67 | 283 | 6.0 | 12.0 | 0.00 | 0.00 | 0.00 | 63 | 1010.2 |
| 20260902214025 | 66 | 254 | 4.0 | 11.0 | 0.00 | 0.00 | 0.00 | 65 | 1010.2 |
| 20260902213525 | 65 | 246 | 4.0 | 11.0 | 0.00 | 0.00 | 0.00 | 66 | 1010.1 |
| 20260902213024 | 65 | 286 | 4.0 | 10.0 | 0.00 | 0.00 | 0.00 | 68 | 1010.1 |
| 20260902212524 | 64 | 264 | 3.0 | 7.0 | 0.00 | 0.00 | 0.00 | 69 | 1010.1 |
| 20260902212024 | 64 | 279 | 2.0 | 7.0 | 0.00 | 0.00 | 0.00 | 69 | 1010.0 |
| 20260902211523 | 63 | 271 | 2.0 | 6.0 | 0.00 | 0.00 | 0.00 | 69 | 1010.1 |
| 20260902211023 | 63 | 269 | 2.0 | 7.0 | 0.00 | 0.00 | 0.00 | 69 | 1010.0 |
| 20260902210522 | 63 | 242 | 2.0 | 7.0 | 0.00 | 0.00 | 0.00 | 69 | 1010.0 |
| 20260902210022 | 63 | 275 | 2.0 | 8.0 | 0.00 | 0.00 | 0.00 | 69 | 1010.0 |
| 20260902205520 | 63 | 328 | 2.0 | 6.0 | 0.00 | 0.00 | 0.00 | 69 | 1010.0 |
| 20260902205022 | 64 | 262 | 2.0 | 6.0 | 0.00 | 0.00 | 0.00 | 68 | 1009.9 |
| 20260902204519 | 64 | 296 | 2.0 | 5.0 | 0.00 | 0.00 | 0.00 | 68 | 1010.0 |
| 20260902204022 | 64 | 284 | 2.0 | 6.0 | 0.00 | 0.00 | 0.00 | 67 | 1009.9 |
| 20260902203519 | 64 | 261 | 2.0 | 8.0 | 0.00 | 0.00 | 0.00 | 67 | 1010.0 |
| 20260902203019 | 64 | 298 | 1.0 | 8.0 | 0.00 | 0.00 | 0.00 | 67 | 1009.9 |
| 20260902202518 | 64 | 262 | 3.0 | 9.0 | 0.00 | 0.00 | 0.00 | 67 | 1010.0 |
| 20260902202017 | 64 | 282 | 3.0 | 9.0 | 0.00 | 0.00 | 0.00 | 67 | 1010.0 |
| 20260902201517 | 64 | 288 | 2.0 | 7.0 | 0.00 | 0.00 | 0.00 | 67 | 1010.1 |
| 20260902201024 | 64 | 310 | 3.0 | 6.0 | 0.00 | 0.00 | 0.00 | 68 | 1010.0 |
| 20260902200515 | 64 | 22 | 2.0 | 5.0 | 0.00 | 0.00 | 0.00 | 67 | 1010.1 |
| 20260902200015 | 64 | 327 | 2.0 | 7.0 | 0.00 | 0.00 | 0.00 | 67 | 1010.1 |
| 20260902195519 | 64 | 221 | 2.0 | 8.0 | 0.00 | 0.00 | 0.00 | 68 | 1010.2 |
| 20260902195014 | 64 | 335 | 2.0 | 8.0 | 0.00 | 0.00 | 0.00 | 68 | 1010.2 |
| 20260902194525 | 64 | 318 | 1.0 | 8.0 | 0.00 | 0.00 | 0.00 | 68 | 1010.1 |
| 20260902194013 | 64 | 198 | 2.0 | 8.0 | 0.00 | 0.00 | 0.00 | 68 | 1010.2 |
| 20260902193513 | 64 | 297 | 4.0 | 8.0 | 0.00 | 0.00 | 0.00 | 67 | 1010.3 |
| 20260902193012 | 65 | 269 | 1.0 | 8.0 | 0.00 | 0.00 | 0.00 | 67 | 1010.3 |
| 20260902192511 | 65 | 313 | 3.0 | 8.0 | 0.00 | 0.00 | 0.00 | 67 | 1010.3 |
| 20260902192010 | 65 | 288 | 3.0 | 8.0 | 0.00 | 0.00 | 0.00 | 66 | 1010.3 |
| 20260902191515 | 65 | 319 | 4.0 | 9.0 | 0.00 | 0.00 | 0.00 | 66 | 1010.1 |
| 20260902191008 | 66 | 299 | 3.0 | 9.0 | 0.00 | 0.00 | 0.00 | 64 | 1010.1 |
| 20260902190507 | 66 | 289 | 3.0 | 8.0 | 0.00 | 0.00 | 0.00 | 63 | 1010.1 |
| 20260902190006 | 66 | 280 | 4.0 | 8.0 | 0.00 | 0.00 | 0.00 | 63 | 1010.3 |
| 20260902185505 | 66 | 265 | 4.0 | 11.0 | 0.00 | 0.00 | 0.00 | 62 | 1010.3 |
| 20260902185005 | 67 | 300 | 4.0 | 11.0 | 0.00 | 0.00 | 0.00 | 62 | 1010.2 |
| 20260902184504 | 67 | 232 | 3.0 | 8.0 | 0.00 | 0.00 | 0.00 | 62 | 1010.3 |
| 20260902184006 | 67 | 254 | 4.0 | 11.0 | 0.00 | 0.00 | 0.00 | 62 | 1010.4 |
| 20260902183503 | 67 | 262 | 4.0 | 10.0 | 0.00 | 0.00 | 0.00 | 62 | 1010.3 |
| 20260902183003 | 67 | 271 | 3.0 | 10.0 | 0.00 | 0.00 | 0.00 | 62 | 1010.5 |
| 20260902182503 | 67 | 254 | 4.0 | 9.0 | 0.00 | 0.00 | 0.00 | 62 | 1010.4 |
| 20260902182002 | 67 | 257 | 3.0 | 8.0 | 0.00 | 0.00 | 0.00 | 62 | 1010.5 |
| 20260902181609 | 67 | 236 | 4.0 | 8.0 | 0.00 | 0.00 | 0.00 | 61 | 1010.6 |
| 20260902181100 | 67 | 276 | 3.0 | 8.0 | 0.00 | 0.00 | 0.00 | 61 | 1010.5 |
| 20260902180559 | 68 | 271 | 3.0 | 8.0 | 0.00 | 0.00 | 0.00 | 60 | 1010.6 |
| 20260902180058 | 68 | 285 | 3.0 | 15.0 | 0.00 | 0.00 | 0.00 | 59 | 1010.6 |
| 20260902175556 | 68 | 246 | 6.0 | 15.0 | 0.00 | 0.00 | 0.00 | 59 | 1010.7 |
| 20260902175057 | 68 | 261 | 6.0 | 17.0 | 0.00 | 0.00 | 0.00 | 59 | 1010.9 |
| 20260902174555 | 68 | 281 | 8.0 | 17.0 | 0.00 | 0.00 | 0.00 | 59 | 1010.9 |
| 20260902174057 | 68 | 284 | 7.0 | 15.0 | 0.00 | 0.00 | 0.00 | 59 | 1010.8 |
| 20260902173554 | 68 | 277 | 6.0 | 14.0 | 0.00 | 0.00 | 0.00 | 59 | 1010.8 |
| 20260902173056 | 68 | 272 | 7.0 | 13.0 | 0.00 | 0.00 | 0.00 | 59 | 1010.9 |
| 20260902172553 | 68 | 242 | 8.0 | 14.0 | 0.00 | 0.00 | 0.00 | 59 | 1011.1 |
| 20260902172054 | 68 | 296 | 7.0 | 14.0 | 0.00 | 0.00 | 0.00 | 59 | 1011.1 |
| 20260902171605 | 68 | 265 | 7.0 | 18.0 | 0.00 | 0.00 | 0.00 | 59 | 1011.2 |
| 20260902171053 | 68 | 223 | 10.0 | 18.0 | 0.00 | 0.00 | 0.00 | 59 | 1011.3 |
| 20260902170549 | 68 | 267 | 9.0 | 17.0 | 0.00 | 0.00 | 0.00 | 59 | 1011.4 |
| 20260902170049 | 68 | 281 | 10.0 | 17.0 | 0.00 | 0.00 | 0.00 | 59 | 1011.5 |
| 20260902165547 | 69 | 266 | 8.0 | 15.0 | 0.00 | 0.00 | 0.00 | 58 | 1011.3 |
| 20260902165046 | 69 | 239 | 8.0 | 15.0 | 0.00 | 0.00 | 0.00 | 58 | 1011.5 |
| 20260902164558 | 69 | 232 | 7.0 | 18.0 | 0.00 | 0.00 | 0.00 | 58 | 1011.5 |
| 20260902164045 | 69 | 292 | 10.0 | 18.0 | 0.00 | 0.00 | 0.00 | 58 | 1011.6 |
| 20260902163545 | 68 | 260 | 8.0 | 14.0 | 0.00 | 0.00 | 0.00 | 58 | 1011.5 |
| 20260902163044 | 68 | 240 | 8.0 | 14.0 | 0.00 | 0.00 | 0.00 | 58 | 1011.5 |
| 20260902162543 | 69 | 250 | 5.0 | 21.0 | 0.00 | 0.00 | 0.00 | 57 | 1011.6 |
| 20260902162043 | 69 | 235 | 8.0 | 21.0 | 0.00 | 0.00 | 0.00 | 56 | 1011.7 |
| 20260902161546 | 69 | 257 | 7.0 | 16.0 | 0.00 | 0.00 | 0.00 | 56 | 1011.7 |
| 20260902161042 | 70 | 299 | 5.0 | 16.0 | 0.00 | 0.00 | 0.00 | 56 | 1011.7 |
| 20260902160540 | 70 | 313 | 7.0 | 17.0 | 0.00 | 0.00 | 0.00 | 56 | 1011.9 |
| 20260902160046 | 69 | 267 | 8.0 | 16.0 | 0.00 | 0.00 | 0.00 | 56 | 1012.2 |
| 20260902155538 | 68 | 240 | 6.0 | 12.0 | 0.00 | 0.00 | 0.00 | 56 | 1012.3 |
| 20260902155038 | 68 | 246 | 4.0 | 11.0 | 0.00 | 0.00 | 0.00 | 55 | 1012.2 |
| 20260902154550 | 68 | 273 | 4.0 | 8.0 | 0.00 | 0.00 | 0.00 | 55 | 1012.3 |
| 20260902154038 | 69 | 313 | 3.0 | 6.0 | 0.00 | 0.00 | 0.00 | 54 | 1012.3 |
| 20260902153534 | 69 | 324 | 3.0 | 10.0 | 0.00 | 0.00 | 0.00 | 54 | 1012.6 |
| 20260902153036 | 69 | 295 | 3.0 | 12.0 | 0.00 | 0.00 | 0.00 | 53 | 1012.7 |
| 20260902152532 | 69 | 243 | 5.0 | 12.0 | 0.00 | 0.00 | 0.00 | 53 | 1012.9 |
| 20260902152036 | 69 | 266 | 6.0 | 11.0 | 0.00 | 0.00 | 0.00 | 53 | 1012.9 |
| 20260902151537 | 69 | 259 | 4.0 | 11.0 | 0.00 | 0.00 | 0.00 | 53 | 1012.9 |
| 20260902151030 | 69 | 273 | 6.0 | 19.0 | 0.00 | 0.00 | 0.00 | 53 | 1013.1 |
| 20260902150530 | 69 | 269 | 6.0 | 19.0 | 0.00 | 0.00 | 0.00 | 53 | 1013.0 |
| 20260902150030 | 69 | 259 | 6.0 | 11.0 | 0.00 | 0.00 | 0.00 | 53 | 1013.0 |
| 20260902145529 | 69 | 290 | 4.0 | 13.0 | 0.00 | 0.00 | 0.00 | 53 | 1013.1 |
| 20260902145031 | 69 | 275 | 6.0 | 15.0 | 0.00 | 0.00 | 0.00 | 53 | 1013.1 |
| 20260902144529 | 69 | 277 | 6.0 | 15.0 | 0.00 | 0.00 | 0.00 | 53 | 1013.1 |
| 20260902144028 | 69 | 291 | 6.0 | 11.0 | 0.00 | 0.00 | 0.00 | 53 | 1013.1 |
| 20260902143527 | 69 | 294 | 5.0 | 11.0 | 0.00 | 0.00 | 0.00 | 53 | 1013.1 |
| 20260902143127 | 69 | 282 | 5.0 | 11.0 | 0.00 | 0.00 | 0.00 | 53 | 1013.1 |
| 20260902142526 | 69 | 257 | 5.0 | 12.0 | 0.00 | 0.00 | 0.00 | 52 | 1013.2 |
| 20260902142025 | 69 | 294 | 6.0 | 12.0 | 0.00 | 0.00 | 0.00 | 52 | 1013.2 |
| 20260902141533 | 69 | 263 | 6.0 | 11.0 | 0.00 | 0.00 | 0.00 | 52 | 1013.2 |
| 20260902141024 | 69 | 292 | 6.0 | 14.0 | 0.00 | 0.00 | 0.00 | 52 | 1013.3 |
| 20260902140523 | 69 | 278 | 6.0 | 14.0 | 0.00 | 0.00 | 0.00 | 53 | 1013.2 |
| 20260902140021 | 69 | 254 | 6.0 | 13.0 | 0.00 | 0.00 | 0.00 | 53 | 1013.2 |
| 20260902135521 | 69 | 295 | 5.0 | 11.0 | 0.00 | 0.00 | 0.00 | 53 | 1013.2 |
| 20260902135021 | 68 | 281 | 6.0 | 13.0 | 0.00 | 0.00 | 0.00 | 54 | 1013.3 |
| 20260902134522 | 68 | 274 | 5.0 | 13.0 | 0.00 | 0.00 | 0.00 | 55 | 1013.4 |
| 20260902134021 | 67 | 235 | 3.0 | 9.0 | 0.00 | 0.00 | 0.00 | 56 | 1013.4 |
| 20260902133529 | 67 | 284 | 3.0 | 9.0 | 0.00 | 0.00 | 0.00 | 56 | 1013.5 |
| 20260902133021 | 66 | 267 | 3.0 | 9.0 | 0.00 | 0.00 | 0.00 | 56 | 1013.5 |
| 20260902132524 | 67 | 303 | 3.0 | 9.0 | 0.00 | 0.00 | 0.00 | 55 | 1013.5 |
| 20260902132020 | 67 | 267 | 2.0 | 8.0 | 0.00 | 0.00 | 0.00 | 55 | 1013.4 |
| 20260902131520 | 67 | 308 | 2.0 | 6.0 | 0.00 | 0.00 | 0.00 | 54 | 1013.4 |
| 20260902131020 | 67 | 294 | 2.0 | 5.0 | 0.00 | 0.00 | 0.00 | 54 | 1013.5 |
| 20260902130519 | 67 | 289 | 1.0 | 8.0 | 0.00 | 0.00 | 0.00 | 53 | 1013.5 |
| 20260902130030 | 68 | 275 | 2.0 | 8.0 | 0.00 | 0.00 | 0.00 | 52 | 1013.6 |
| 20260902125521 | 68 | 275 | 2.0 | 6.0 | 0.00 | 0.00 | 0.00 | 52 | 1013.7 |
| 20260902125019 | 68 | 294 | 2.0 | 3.0 | 0.00 | 0.00 | 0.00 | 52 | 1013.6 |
| 20260902124519 | 69 | 288 | 2.0 | 3.0 | 0.00 | 0.00 | 0.00 | 51 | 1013.6 |
| 20260902124019 | 69 | 286 | 2.0 | 4.0 | 0.00 | 0.00 | 0.00 | 50 | 1013.7 |
| 20260902123519 | 70 | 252 | 1.0 | 5.0 | 0.00 | 0.00 | 0.00 | 49 | 1013.7 |
| 20260902123027 | 71 | 272 | 2.0 | 6.0 | 0.00 | 0.00 | 0.00 | 48 | 1013.7 |
| 20260902122519 | 71 | 266 | 2.0 | 7.0 | 0.00 | 0.00 | 0.00 | 47 | 1013.8 |
| 20260902122018 | 72 | 267 | 3.0 | 7.0 | 0.00 | 0.00 | 0.00 | 46 | 1013.9 |
| 20260902121519 | 72 | 252 | 3.0 | 7.0 | 0.00 | 0.00 | 0.00 | 46 | 1014.0 |
| 20260902121021 | 72 | 279 | 3.0 | 11.0 | 0.00 | 0.00 | 0.00 | 46 | 1014.1 |
| 20260902120519 | 72 | 286 | 3.0 | 13.0 | 0.00 | 0.00 | 0.00 | 46 | 1014.1 |
| 20260902120017 | 72 | 263 | 3.0 | 8.0 | 0.00 | 0.00 | 0.00 | 46 | 1014.1 |
| 20260902115517 | 72 | 239 | 3.0 | 9.0 | 0.00 | 0.00 | 0.00 | 45 | 1014.1 |
| 20260902115017 | 73 | 266 | 3.0 | 9.0 | 0.00 | 0.00 | 0.00 | 45 | 1014.2 |
| 20260902114524 | 72 | 267 | 3.0 | 8.0 | 0.00 | 0.00 | 0.00 | 45 | 1014.2 |
| 20260902114017 | 72 | 254 | 4.0 | 8.0 | 0.00 | 0.00 | 0.00 | 45 | 1014.2 |
| 20260902113516 | 73 | 275 | 3.0 | 9.0 | 0.00 | 0.00 | 0.00 | 44 | 1014.2 |
| 20260902113016 | 73 | 284 | 3.0 | 9.0 | 0.00 | 0.00 | 0.00 | 44 | 1014.2 |
| 20260902112516 | 73 | 271 | 4.0 | 10.0 | 0.00 | 0.00 | 0.00 | 43 | 1014.2 |
| 20260902112017 | 73 | 263 | 3.0 | 10.0 | 0.00 | 0.00 | 0.00 | 43 | 1014.2 |
| 20260902111518 | 73 | 270 | 4.0 | 10.0 | 0.00 | 0.00 | 0.00 | 43 | 1014.2 |
| 20260902111017 | 74 | 283 | 5.0 | 12.0 | 0.00 | 0.00 | 0.00 | 43 | 1014.2 |
| 20260902110515 | 74 | 262 | 6.0 | 12.0 | 0.00 | 0.00 | 0.00 | 42 | 1014.1 |
| 20260902110015 | 74 | 269 | 7.0 | 12.0 | 0.00 | 0.00 | 0.00 | 42 | 1014.1 |
| 20260902105515 | 74 | 282 | 6.0 | 17.0 | 0.00 | 0.00 | 0.00 | 42 | 1014.2 |